| time (UTC) | temp C | wind direction | speed KPH | gust KPH | rain 1hr cm | rain 24hr cm | rain mn cm | humidity % | barometer mb |
| 20260507080036 | 4 | 220 | 0.0 | 0.0 | 0.00 | 1.42 | 0.00 | 93 | 1007.0 |
| 20260507074539 | 4 | 220 | 0.0 | 0.0 | 0.00 | 1.42 | 0.00 | 93 | 1007.1 |
| 20260507073040 | 4 | 220 | 0.0 | 0.0 | 0.00 | 1.42 | 0.00 | 93 | 1007.1 |
| 20260507071532 | 4 | 220 | 0.0 | 0.0 | 0.00 | 1.42 | 0.00 | 93 | 1007.0 |
| 20260507070034 | 5 | 220 | 0.0 | 0.0 | 0.00 | 1.42 | 0.00 | 93 | 1006.7 |
| 20260507064531 | 5 | 326 | 0.0 | 0.0 | 0.00 | 1.42 | 0.00 | 93 | 1006.7 |
| 20260507063030 | 5 | 326 | 0.0 | 0.0 | 0.00 | 1.42 | 0.00 | 93 | 1006.4 |
| 20260507061533 | 5 | 315 | 0.0 | 0.0 | 0.00 | 1.42 | 0.00 | 93 | 1006.6 |
| 20260507060034 | 5 | 324 | 0.0 | 0.0 | 0.00 | 1.42 | 0.00 | 93 | 1006.7 |
| 20260507054527 | 5 | 302 | 0.0 | 0.0 | 0.00 | 1.42 | 0.00 | 93 | 1006.6 |
| 20260507053027 | 4 | 11 | 0.0 | 0.0 | 0.00 | 1.42 | 0.00 | 93 | 1007.0 |
| 20260507051525 | 5 | 360 | 0.0 | 0.0 | 0.00 | 1.42 | 0.00 | 93 | 1007.2 |
| 20260507050031 | 4 | 5 | 0.0 | 0.0 | 0.00 | 1.42 | 0.00 | 93 | 1007.0 |
| 20260507044538 | 5 | 341 | 0.0 | 0.0 | 0.00 | 1.42 | 0.00 | 93 | 1006.7 |
| 20260507043020 | 5 | 313 | 0.0 | 0.0 | 0.00 | 1.42 | 0.00 | 93 | 1006.7 |
| 20260507041518 | 5 | 313 | 0.0 | 0.0 | 0.00 | 1.42 | 0.00 | 93 | 1006.5 |
| 20260507040014 | 5 | 313 | 0.0 | 0.0 | 0.00 | 1.42 | 0.00 | 93 | 1006.8 |
| 20260507034514 | 5 | 313 | 0.0 | 0.0 | 0.00 | 1.42 | 1.42 | 93 | 1006.9 |
| 20260507033014 | 5 | 313 | 0.0 | 11.3 | 0.00 | 1.42 | 1.42 | 93 | 1006.6 |
| 20260507031512 | 5 | 298 | 1.6 | 12.9 | 0.00 | 1.42 | 1.42 | 93 | 1006.5 |
| 20260507030012 | 5 | 351 | 3.2 | 11.3 | 0.00 | 1.42 | 1.42 | 93 | 1006.6 |
| 20260507024511 | 6 | 327 | 0.0 | 14.5 | 0.03 | 1.42 | 1.42 | 93 | 1006.7 |
| 20260507023008 | 6 | 321 | 4.8 | 14.5 | 0.03 | 1.42 | 1.42 | 93 | 1006.8 |
| 20260507021506 | 6 | 323 | 4.8 | 14.5 | 0.03 | 1.42 | 1.42 | 93 | 1006.9 |
| 20260507020005 | 6 | 319 | 4.8 | 20.9 | 0.03 | 1.42 | 1.42 | 93 | 1006.8 |
| 20260507014503 | 6 | 312 | 8.0 | 14.5 | 0.00 | 1.40 | 1.40 | 93 | 1006.6 |
| 20260507013000 | 6 | 296 | 0.0 | 11.3 | 0.03 | 1.40 | 1.40 | 92 | 1006.4 |
| 20260507011558 | 6 | 290 | 6.4 | 12.9 | 0.03 | 1.40 | 1.40 | 92 | 1006.3 |
| 20260507010108 | 7 | 344 | 0.0 | 0.0 | 0.03 | 1.40 | 1.40 | 92 | 1006.2 |
| 20260507004554 | 7 | 344 | 0.0 | 0.0 | 0.03 | 1.40 | 1.40 | 92 | 1006.1 |
| 20260507003053 | 7 | 344 | 0.0 | 0.0 | 0.00 | 1.37 | 1.37 | 92 | 1005.5 |
| 20260507001553 | 7 | 331 | 0.0 | 8.0 | 0.00 | 1.37 | 1.37 | 92 | 1005.4 |
| 20260507000048 | 8 | 290 | 4.8 | 12.9 | 0.00 | 1.37 | 1.37 | 92 | 1005.2 |
| 20260506234545 | 8 | 324 | 0.0 | 0.0 | 0.00 | 1.37 | 1.37 | 92 | 1004.7 |
| 20260506233042 | 9 | 247 | 0.0 | 0.0 | 0.00 | 1.37 | 1.37 | 92 | 1004.2 |
| 20260506231540 | 9 | 317 | 0.0 | 0.0 | 0.00 | 1.37 | 1.37 | 92 | 1003.7 |
| 20260506230039 | 10 | 338 | 0.0 | 9.7 | 0.00 | 1.37 | 1.37 | 92 | 1003.6 |
| 20260506224538 | 11 | 355 | 3.2 | 17.7 | 0.00 | 1.37 | 1.37 | 91 | 1003.4 |
| 20260506223037 | 12 | 293 | 1.6 | 14.5 | 0.00 | 1.37 | 1.37 | 92 | 1003.1 |
| 20260506221535 | 12 | 348 | 0.0 | 6.4 | 0.00 | 1.37 | 1.37 | 93 | 1002.9 |
| 20260506220038 | 12 | 312 | 0.0 | 4.8 | 0.00 | 1.37 | 1.37 | 93 | 1002.7 |
| 20260506214534 | 12 | 250 | 0.0 | 6.4 | 0.00 | 1.42 | 1.37 | 93 | 1002.6 |
| 20260506213034 | 12 | 212 | 1.6 | 11.3 | 0.05 | 1.42 | 1.37 | 93 | 1002.6 |
| 20260506211533 | 13 | 296 | 0.0 | 0.0 | 0.13 | 1.42 | 1.37 | 93 | 1002.6 |
| 20260506210033 | 13 | 296 | 0.0 | 0.0 | 0.15 | 1.42 | 1.37 | 93 | 1002.6 |
| 20260506204533 | 13 | 242 | 0.0 | 8.0 | 0.18 | 1.68 | 1.37 | 93 | 1002.7 |
| 20260506203033 | 13 | 215 | 0.0 | 6.4 | 0.15 | 1.63 | 1.32 | 93 | 1002.5 |
| 20260506201542 | 13 | 155 | 0.0 | 6.4 | 0.10 | 1.55 | 1.24 | 93 | 1002.6 |
| 20260506200031 | 13 | 173 | 0.0 | 6.4 | 0.08 | 1.52 | 1.22 | 93 | 1002.6 |
| 20260506194534 | 13 | 161 | 0.0 | 0.0 | 0.10 | 1.50 | 1.19 | 93 | 1002.7 |
| 20260506193027 | 13 | 114 | 0.0 | 9.7 | 0.15 | 1.45 | 1.17 | 93 | 1002.9 |
| 20260506191526 | 13 | 182 | 0.0 | 8.0 | 0.18 | 1.42 | 1.14 | 93 | 1003.0 |
| 20260506190026 | 13 | 152 | 0.0 | 14.5 | 0.23 | 1.42 | 1.14 | 93 | 1003.1 |
| 20260506184523 | 13 | 182 | 0.0 | 6.4 | 0.23 | 1.40 | 1.09 | 93 | 1003.3 |
| 20260506183022 | 13 | 182 | 6.4 | 11.3 | 0.23 | 1.32 | 1.02 | 93 | 1003.5 |
| 20260506181520 | 13 | 190 | 0.0 | 11.3 | 0.28 | 1.27 | 0.97 | 93 | 1003.5 |
| 20260506180020 | 13 | 161 | 0.0 | 8.0 | 0.33 | 1.22 | 0.91 | 93 | 1003.7 |
| 20260506174518 | 13 | 175 | 4.8 | 11.3 | 0.38 | 1.17 | 0.86 | 93 | 1003.8 |
| 20260506173018 | 13 | 158 | 4.8 | 14.5 | 0.43 | 1.09 | 0.79 | 93 | 1004.2 |
| 20260506171516 | 13 | 186 | 8.0 | 16.1 | 0.43 | 0.99 | 0.69 | 93 | 1004.5 |
| 20260506170016 | 13 | 186 | 4.8 | 14.5 | 0.38 | 0.89 | 0.58 | 93 | 1004.6 |
| 20260506164513 | 13 | 155 | 1.6 | 9.7 | 0.30 | 0.76 | 0.46 | 92 | 1004.5 |
| 20260506163024 | 13 | 158 | 0.0 | 6.4 | 0.23 | 0.66 | 0.36 | 92 | 1004.3 |
| 20260506161511 | 13 | 106 | 0.0 | 0.0 | 0.15 | 0.56 | 0.25 | 92 | 1004.5 |
| 20260506160014 | 13 | 163 | 0.0 | 0.0 | 0.15 | 0.51 | 0.20 | 92 | 1004.7 |
| 20260506154507 | 13 | 166 | 0.0 | 0.0 | 0.15 | 0.46 | 0.15 | 91 | 1005.0 |
| 20260506153006 | 13 | 166 | 0.0 | 0.0 | 0.13 | 0.43 | 0.13 | 91 | 1005.0 |
| 20260506151507 | 13 | 167 | 0.0 | 0.0 | 0.08 | 0.38 | 0.08 | 90 | 1005.5 |
| 20260506150006 | 13 | 197 | 0.0 | 0.0 | 0.05 | 0.36 | 0.05 | 90 | 1005.6 |
| 20260506144503 | 13 | 198 | 0.0 | 0.0 | 0.00 | 0.30 | 0.00 | 90 | 1005.9 |
| 20260506143013 | 13 | 198 | 0.0 | 0.0 | 0.00 | 0.30 | 0.00 | 90 | 1005.8 |
| 20260506141502 | 13 | 198 | 0.0 | 0.0 | 0.00 | 0.30 | 0.00 | 90 | 1005.6 |
| 20260506140003 | 13 | 198 | 0.0 | 0.0 | 0.00 | 0.30 | 0.00 | 91 | 1005.6 |
| 20260506134601 | 13 | 198 | 0.0 | 0.0 | 0.00 | 0.30 | 0.00 | 91 | 1005.5 |
| 20260506133002 | 12 | 198 | 0.0 | 0.0 | 0.00 | 0.30 | 0.00 | 92 | 1005.4 |
| 20260506131600 | 12 | 198 | 0.0 | 0.0 | 0.00 | 0.30 | 0.00 | 92 | 1005.7 |
| 20260506130107 | 11 | 198 | 0.0 | 0.0 | 0.00 | 0.30 | 0.00 | 92 | 1006.0 |
| 20260506124601 | 11 | 198 | 0.0 | 0.0 | 0.00 | 0.30 | 0.00 | 92 | 1006.4 |
| 20260506123058 | 11 | 198 | 0.0 | 4.8 | 0.00 | 0.30 | 0.00 | 93 | 1006.3 |
| 20260506121604 | 11 | 213 | 0.0 | 0.0 | 0.00 | 0.30 | 0.00 | 93 | 1006.0 |
| 20260506120109 | 11 | 185 | 0.0 | 0.0 | 0.00 | 0.30 | 0.00 | 93 | 1006.0 |
| 20260506114608 | 10 | 185 | 0.0 | 0.0 | 0.00 | 0.30 | 0.00 | 93 | 1006.0 |
| 20260506113052 | 10 | 185 | 0.0 | 0.0 | 0.00 | 0.30 | 0.00 | 93 | 1006.1 |
| 20260506111553 | 10 | 185 | 0.0 | 0.0 | 0.00 | 0.30 | 0.00 | 93 | 1006.1 |
| 20260506110050 | 10 | 203 | 0.0 | 0.0 | 0.00 | 0.30 | 0.00 | 93 | 1005.6 |
| 20260506104550 | 10 | 220 | 0.0 | 0.0 | 0.00 | 0.30 | 0.00 | 93 | 1005.7 |
| 20260506103047 | 10 | 220 | 0.0 | 0.0 | 0.00 | 0.30 | 0.00 | 93 | 1005.8 |
| 20260506101544 | 10 | 220 | 0.0 | 0.0 | 0.00 | 0.30 | 0.00 | 93 | 1005.7 |
| 20260506100041 | 11 | 221 | 0.0 | 0.0 | 0.00 | 0.30 | 0.00 | 93 | 1005.7 |
| 20260506094544 | 11 | 221 | 0.0 | 0.0 | 0.00 | 0.30 | 0.00 | 93 | 1005.6 |
| 20260506093100 | 11 | 221 | 0.0 | 0.0 | 0.00 | 0.30 | 0.00 | 93 | 1005.8 |
| 20260506091535 | 11 | 221 | 0.0 | 0.0 | 0.00 | 0.30 | 0.00 | 93 | 1005.7 |
| 20260506090038 | 11 | 221 | 0.0 | 0.0 | 0.00 | 0.30 | 0.00 | 93 | 1005.8 |
| 20260506084531 | 12 | 221 | 0.0 | 0.0 | 0.00 | 0.30 | 0.00 | 92 | 1006.0 |
| 20260506083029 | 12 | 221 | 0.0 | 0.0 | 0.00 | 0.30 | 0.00 | 92 | 1006.3 |
| 20260506081526 | 12 | 221 | 0.0 | 0.0 | 0.00 | 0.30 | 0.00 | 92 | 1006.3 |